sat.trackr.live / text

‹ back to catalog

STARLINK-35050

NORAD 65440 · 2025-194G

PAYLOAD ACTIVE UNKNOWN

§ Identity

Operator
Country
US
Launch date
2025-09-03
Launch site
AFWTR
Launch vehicle
Mass (kg)
RCS (m²)

Purposes: comms

External: N2YO · Heavens-Above · Gunter

§ Orbital elements

Epoch: 2026-05-25T03:06:22.756320Z

Period
95.64 min
Inclination
97.4496°
Eccentricity
0.0002679
Mean motion
15.05654057 rev/d
Perigee alt
547.6 km
Apogee alt
551.4 km
Semi-major
6,927.6 km
B*
1.2593e-4
RAAN
359.4199°
Arg perigee
80.1164°
Mean anomaly
280.0365°
Rev number
4,115

§ Raw data

STARLINK-350501 65440U 25194G   26145.12943005  .00001759  00000+0  12593-3 0  99962 65440  97.4496 359.4199 0002679  80.1164 280.0365 15.05654057 41157

JSON: /api/v1/satellites/65440 · /tle

For live sub-satellite position, see the globe view (requires WebGL).

§ Visibility from observer

Set your observer location to see the next 7 days of passes ≥ 10°. The values pass through the URL so the page stays shareable.

No JS? Fill the form by hand. The geolocation button needs JavaScript.